When you browse on this site, cookies collect data to enhance your experience and personalize the content and advertising you see.
Visit our Privacy Policy to learn more. By continuing to use the site, you agree to this use of cookies and data.
  • In Hungary
  • List of Countries
  • For 7 days
  • Water Temperature
  • Satellite Maps
  • Weather Map
  • News
  • Weather Widgets
  • user-avatar
    Login

    Hourly Weather Pukou

    Today, 21 April, Sunday

    Time Temperature Precipitation Wind Pressure Humidity
    00:00 +21°C° 0 mm 1 mps 719 mmHg 96%
    01:00 +21°C° 0 mm 1 mps 719 mmHg 97%
    02:00 +21°C° 0 mm 1 mps 719 mmHg 97%
    03:00 +21°C° 0 mm 1 mps 719 mmHg 96%
    04:00 +21°C° 0 mm 1 mps 719 mmHg 96%
    05:00 +22°C° 0.1 mm 1 mps 719 mmHg 93%
    06:00 +22°C° 0.1 mm 1 mps 719 mmHg 91%
    07:00 +23°C° 0 mm 1 mps 720 mmHg 87%
    08:00 +24°C° 0.5 mm 1 mps 720 mmHg 84%
    09:00 +25°C° 0.5 mm 1 mps 720 mmHg 81%
    10:00 +26°C° 0.5 mm 1 mps 721 mmHg 78%
    11:00 +28°C° 0.1 mm 1 mps 720 mmHg 74%
    12:00 +29°C° 0.1 mm 1 mps 720 mmHg 70%
    13:00 +27°C° 0 mm 2 mps 721 mmHg 74%
    14:00 +27°C° 0.1 mm 2 mps 720 mmHg 76%
    15:00 +27°C° 0.1 mm 2 mps 720 mmHg 78%
    16:00 +26°C° 0.1 mm 2 mps 719 mmHg 80%
    17:00 +25°C° 0.1 mm 2 mps 719 mmHg 84%
    18:00 +24°C° 0.1 mm 1 mps 720 mmHg 88%
    19:00 +23°C° 0 mm 2 mps 720 mmHg 91%
    20:00 +23°C° 0 mm 1 mps 720 mmHg 92%
    21:00 +22°C° 0 mm 1 mps 720 mmHg 93%
    22:00 +22°C° 0 mm 1 mps 721 mmHg 93%
    23:00 +21°C° 0.4 mm 1 mps 721 mmHg 94%

    Tomorrow, 22 April, Monday

    Time Temperature Precipitation Wind Pressure Humidity
    00:00 +21°C° 0.4 mm 1 mps 721 mmHg 94%
    01:00 +21°C° 0.4 mm 1 mps 721 mmHg 94%
    02:00 +20°C° 0.9 mm 1 mps 720 mmHg 95%
    03:00 +20°C° 0.9 mm 1 mps 720 mmHg 96%
    04:00 +20°C° 0.9 mm 1 mps 720 mmHg 97%
    05:00 +20°C° 0.1 mm 1 mps 720 mmHg 96%
    06:00 +20°C° 0.1 mm 1 mps 720 mmHg 95%
    07:00 +21°C° 0.1 mm 1 mps 720 mmHg 93%
    08:00 +23°C° 0.2 mm 1 mps 721 mmHg 88%
    09:00 +24°C° 0.2 mm 1 mps 721 mmHg 83%
    10:00 +26°C° 0.2 mm 1 mps 721 mmHg 77%
    11:00 +27°C° 0.9 mm 1 mps 721 mmHg 76%
    12:00 +28°C° 0.9 mm 1 mps 721 mmHg 74%
    13:00 +29°C° 0.9 mm 1 mps 721 mmHg 73%
    14:00 +29°C° 1.2 mm 1 mps 720 mmHg 73%
    15:00 +29°C° 1.2 mm 1 mps 720 mmHg 73%
    16:00 +29°C° 1.2 mm 1 mps 719 mmHg 74%
    17:00 +28°C° 0.9 mm 1 mps 719 mmHg 80%
    18:00 +26°C° 0.9 mm 1 mps 719 mmHg 86%
    19:00 +25°C° 0.9 mm 1 mps 719 mmHg 93%
    20:00 +24°C° 3 mm 1 mps 719 mmHg 94%
    21:00 +24°C° 3 mm 1 mps 720 mmHg 95%
    22:00 +23°C° 3 mm 1 mps 720 mmHg 97%
    23:00 +23°C° 3 mm 1 mps 720 mmHg 97%

    Day after tomorrow, 23 April, Tuesday

    Time Temperature Precipitation Wind Pressure Humidity
    00:00 +23°C° 3 mm 1 mps 720 mmHg 97%
    01:00 +21°C° 3 mm 0 mps 720 mmHg 97%
    02:00 +21°C° 2 mm 0 mps 720 mmHg 97%
    03:00 +23°C° 2 mm 1 mps 719 mmHg 97%
    04:00 +23°C° 2 mm 1 mps 719 mmHg 97%
    05:00 +24°C° 0.6 mm 1 mps 720 mmHg 96%
    06:00 +24°C° 0.6 mm 1 mps 720 mmHg 94%
    07:00 +25°C° 0.6 mm 1 mps 721 mmHg 93%
    08:00 +26°C° 0.5 mm 1 mps 721 mmHg 90%
    09:00 +27°C° 0.5 mm 2 mps 721 mmHg 87%
    10:00 +27°C° 0.5 mm 2 mps 721 mmHg 85%
    11:00 +28°C° 0.1 mm 2 mps 721 mmHg 82%
    12:00 +29°C° 0.1 mm 2 mps 721 mmHg 80%
    13:00 +29°C° 0.1 mm 2 mps 720 mmHg 77%
    14:00 +29°C° 0 mm 2 mps 720 mmHg 77%
    15:00 +30°C° 0 mm 2 mps 719 mmHg 77%
    16:00 +30°C° 0 mm 2 mps 719 mmHg 76%
    17:00 +29°C° 0 mm 2 mps 719 mmHg 81%
    18:00 +27°C° 0 mm 2 mps 719 mmHg 86%
    19:00 +26°C° 0 mm 1 mps 719 mmHg 91%
    20:00 +26°C° 6.6 mm 1 mps 719 mmHg 92%
    21:00 +25°C° 6.6 mm 1 mps 720 mmHg 94%
    22:00 +25°C° 6.6 mm 1 mps 720 mmHg 95%
    23:00 +25°C° 3.3 mm 1 mps 720 mmHg 95%

    24 April, Wednesday

    Time Temperature Precipitation Wind Pressure Humidity
    00:00 +25°C° 3.3 mm 1 mps 720 mmHg 94%
    01:00 +25°C° 3.3 mm 2 mps 720 mmHg 93%
    02:00 +25°C° 0.1 mm 2 mps 719 mmHg 93%
    03:00 +25°C° 0.1 mm 2 mps 719 mmHg 92%
    04:00 +25°C° 0.1 mm 2 mps 719 mmHg 91%
    05:00 +25°C° 0.1 mm 2 mps 719 mmHg 90%
    06:00 +26°C° 0.1 mm 2 mps 720 mmHg 89%
    07:00 +26°C° 0.1 mm 2 mps 720 mmHg 87%
    08:00 +27°C° 0.1 mm 2 mps 721 mmHg 86%
    09:00 +27°C° 0.1 mm 2 mps 721 mmHg 84%
    10:00 +28°C° 0.1 mm 2 mps 721 mmHg 82%
    11:00 +29°C° 0 mm 2 mps 721 mmHg 77%
    12:00 +30°C° 0 mm 2 mps 721 mmHg 72%
    13:00 +31°C° 0 mm 3 mps 720 mmHg 67%
    14:00 +31°C° 0 mm 3 mps 720 mmHg 67%
    15:00 +31°C° 0 mm 3 mps 719 mmHg 68%
    16:00 +31°C° 0 mm 3 mps 719 mmHg 69%
    17:00 +30°C° 0 mm 2 mps 719 mmHg 76%
    18:00 +28°C° 0 mm 2 mps 719 mmHg 82%
    19:00 +27°C° 0 mm 1 mps 719 mmHg 89%
    20:00 +26°C° 3.3 mm 1 mps 720 mmHg 91%
    21:00 +26°C° 3.3 mm 1 mps 720 mmHg 93%
    22:00 +25°C° 3.3 mm 1 mps 720 mmHg 95%
    23:00 +25°C° 0.3 mm 1 mps 720 mmHg 94%

    25 April, Thursday

    Time Temperature Precipitation Wind Pressure Humidity
    00:00 +25°C° 0.3 mm 1 mps 720 mmHg 93%
    01:00 +25°C° 0.3 mm 1 mps 720 mmHg 93%
    02:00 +25°C° 0 mm 1 mps 720 mmHg 93%
    03:00 +24°C° 0 mm 1 mps 719 mmHg 93%
    04:00 +24°C° 0 mm 1 mps 719 mmHg 93%
    05:00 +24°C° 1.3 mm 1 mps 720 mmHg 92%
    06:00 +25°C° 1.3 mm 1 mps 720 mmHg 92%
    07:00 +25°C° 1.3 mm 1 mps 721 mmHg 91%
    08:00 +26°C° 1.5 mm 1 mps 721 mmHg 89%
    09:00 +27°C° 1.5 mm 1 mps 721 mmHg 86%
    10:00 +28°C° 1.5 mm 1 mps 722 mmHg 84%
    11:00 +29°C° 1 mm 1 mps 721 mmHg 78%
    12:00 +30°C° 1 mm 1 mps 721 mmHg 73%
    13:00 +29°C° 1 mm 0 mps 720 mmHg 67%
    14:00 +28°C° 0.5 mm 0 mps 720 mmHg 71%
    15:00 +28°C° 0.5 mm 0 mps 720 mmHg 74%
    16:00 +27°C° 0.5 mm 0 mps 719 mmHg 78%
    17:00 +26°C° 0.3 mm 0 mps 719 mmHg 80%
    18:00 +25°C° 0.3 mm 0 mps 720 mmHg 82%
    19:00 +24°C° 0.3 mm 0 mps 720 mmHg 85%
    20:00 +23°C° 0 mm 0 mps 720 mmHg 86%
    21:00 +25°C° 0 mm 1 mps 720 mmHg 87%
    22:00 +25°C° 0 mm 1 mps 720 mmHg 88%
    23:00 +22°C° 0.1 mm 0 mps 720 mmHg 89%

    26 April, Friday

    Time Temperature Precipitation Wind Pressure Humidity
    00:00 +22°C° 0.1 mm 0 mps 720 mmHg 91%
    01:00 +22°C° 0.1 mm 0 mps 720 mmHg 92%
    02:00 +22°C° 0.2 mm 0 mps 720 mmHg 92%
    03:00 +21°C° 0.2 mm 0 mps 720 mmHg 93%
    04:00 +21°C° 0.2 mm 0 mps 719 mmHg 93%
    05:00 +22°C° 0 mm 0 mps 720 mmHg 91%
    06:00 +23°C° 0 mm 0 mps 720 mmHg 89%
    07:00 +24°C° 0 mm 0 mps 721 mmHg 87%
    08:00 +25°C° 0.6 mm 0 mps 721 mmHg 80%
    09:00 +29°C° 0.6 mm 1 mps 722 mmHg 73%
    10:00 +31°C° 0.6 mm 1 mps 722 mmHg 66%
    11:00 +31°C° 1.1 mm 1 mps 722 mmHg 65%
    12:00 +32°C° 1.1 mm 2 mps 721 mmHg 63%
    13:00 +32°C° 1.1 mm 2 mps 721 mmHg 61%
    14:00 +31°C° 0.7 mm 2 mps 720 mmHg 65%
    15:00 +31°C° 0.7 mm 1 mps 720 mmHg 70%
    16:00 +30°C° 0.7 mm 1 mps 720 mmHg 74%
    17:00 +28°C° 0.2 mm 1 mps 720 mmHg 77%
    18:00 +27°C° 0.2 mm 1 mps 720 mmHg 81%
    19:00 +26°C° 0.2 mm 1 mps 721 mmHg 85%
    20:00 +26°C° 0 mm 1 mps 721 mmHg 86%
    21:00 +25°C° 0 mm 1 mps 721 mmHg 86%
    22:00 +25°C° 0 mm 1 mps 722 mmHg 87%
    23:00 +24°C° 0.1 mm 1 mps 721 mmHg 88%
    Show more